Regional Weather Roundup
Issued by NWS Midland/Odessa, TX

Current Version | Previous Version | Text Only | Print | Product List | Glossary On
Versions: 1 2 3 4 5 6 7 8 9 10 11 12 13 14 15 16 17 18 19 20 21 22 23 24 25 26 27 28 29 30 31 32 33 34 35 36 37 38 39 40 41 42 43 44 45 46 47 48 49 50
000
ASUS44 KMAF 192312
RWRMAF
MIDLAND AREA WEATHER ROUNDUP
NATIONAL WEATHER SERVICE MIDLAND TX
500 PM CST SUN JAN 19 2020

...IN SOUTHWEST TEXAS AND SOUTHEAST NEW MEXICO...

CITY           SKY/WX    TMP DP  RH WIND       PRES   REMARKS
ALPINE         MOSUNNY   53  33  45 E7        30.39S
ANDREWS        FAIR      49  18  29 SE3       30.41S
ARTESIA        SUNNY     48  21  34 SE10      30.39
BIG SPRING     SUNNY     51  15  24 SE7       30.41F
CARLSBAD       SUNNY     49  20  31 SE10      30.36F
DRYDEN           N/A     55  19  24 SE10      30.35F
FORT STOCKTON  SUNNY     52  24  33 E14       30.37S
GUAD PASS      SUNNY     40  22  48 NE31      30.30F WCI  28
HOBBS          SUNNY     48  14  25 SE8       30.38F
LAMESA         NOT AVBL
MARFA          SUNNY     56  36  47 E9        30.33S
MIDLAND AIRPK  SUNNY     50  17  27 E9        30.41F
MIDLAND INTL   SUNNY     51  20  29 SE10      30.40F
ODESSA         SUNNY     50  19  29 SE9       30.40F
PECOS          SUNNY     52  21  29 E12       30.38F
PRESIDIO       FAIR      63  34  33 NE14      30.28F
SEMINOLE       SUNNY     48  16  27 SE8       30.44S
SNYDER         SUNNY     49  18  28 SE7       30.44F
WINK           SUNNY     51  19  28 SE9       30.37F
$$
...OTHER STATIONS IN TEXAS...

CITY           SKY/WX    TMP DP  RH WIND       PRES   REMARKS
ABILENE        SUNNY     53  17  24 E5        30.46S
AMARILLO       SUNNY     47  20  34 SW7       30.41S
AUSTIN         PTCLDY    57  26  30 NE15      30.44F
BROWNSVILLE    CLOUDY    60  49  66 N17G25    30.35S
CORPUS CHRISTI MOSUNNY   62  34  35 NE13      30.39S
DALLAS FTW     PTCLDY    52  20  28 N10       30.47F
DEL RIO        SUNNY     64  17  16 SE6       30.40S
EL PASO        MOSUNNY   62  31  31 N8        30.24F
HOUSTON INT    PTCLDY    59  25  27 N15       30.42R
LUBBOCK        MOSUNNY   47  18  31 S3        30.42S
SAN ANGELO     SUNNY     54  21  27 E10       30.42F
SAN ANTONIO    MOSUNNY   58  21  24 E12       30.43S
WACO           CLEAR     53  23  31 NE12      30.48F
WICHITA FALLS  PTCLDY    33  15  47 N10       30.54S WCI  25
$$
...OTHER LOCATIONS IN NEW MEXICO...

CITY           SKY/WX    TMP DP  RH WIND       PRES   REMARKS
ALAMOGORDO     SUNNY     57  25  28 CALM      30.30
ALBUQUERQUE    PTSUNNY   47  17  30 N14       30.35S
CANNON AFB     CLOUDY    45  23  42 S5        30.40S
CLOVIS         PTSUNNY   44  23  43 SE3       30.40F
HOLLOMAN AFB   SUNNY     57  24  28 W5        30.29S
ROSWELL        SUNNY     50  24  36 SE8       30.37S
RUIDOSO        SUNNY     45  21  39 SE9       30.37  WCI  40
SANTA FE       SUNNY     41  20  43 N7        30.36R WCI  36
TRUTH OR CONSE SUNNY     59  17  19 NE5       30.28S
TUCUMCARI      MOSUNNY   44  26  49 SW7       30.38S
$$



USA.gov is the U.S. government's official web portal to all federal, state and local government web resources and services.